CCA7892 ZSPD-ZBYN

Flight info

Callsign CCA7892
Flight time 1h 56m
Altitude 38100
Route PIK95D/35R PIKAS G330 UNTAN G345 OLRIS R343 HFE B208 ANPIG ANPIG8ZA
Aircraft B77W/H-SDE1E2E3FGHIJ2J3J4J5M1RWXY/LB1D1

Departure

Time 2026-04-30 10:49
Airport Shanghai Pudong International Airport (ZSPD)

Arrival

Time 2026-04-30 12:45
Airport Taiyuan Wusu International Airport (ZBYN)
Time Latitude Longitude Altitude Speed Heading
2026-04-30 10:48 31.28308 121.73650 6329 ft 262 kts 340°
2026-04-30 10:49 31.30601 121.72717 7424 ft 266 kts 339°
2026-04-30 10:49 31.33046 121.71722 8595 ft 268 kts 338°
2026-04-30 10:49 31.35820 121.70603 9889 ft 272 kts 338°
2026-04-30 10:50 31.41764 121.68347 12597 ft 284 kts 337°
2026-04-30 10:50 31.43640 121.67630 13428 ft 288 kts 336°
2026-04-30 10:50 31.45566 121.66894 14264 ft 289 kts 336°
2026-04-30 10:51 31.47483 121.66166 15091 ft 292 kts 336°
2026-04-30 10:51 31.49414 121.65434 15918 ft 293 kts 335°
2026-04-30 10:51 31.51373 121.64690 16745 ft 297 kts 334°
2026-04-30 10:51 31.53310 121.63790 17577 ft 296 kts 327°
2026-04-30 10:52 31.55095 121.62624 18408 ft 297 kts 320°
2026-04-30 10:52 31.56766 121.61168 19237 ft 297 kts 314°
2026-04-30 10:52 31.58253 121.59499 20046 ft 299 kts 309°
2026-04-30 10:52 31.59728 121.57713 20876 ft 302 kts 309°
2026-04-30 10:53 31.61189 121.55960 21661 ft 306 kts 308°
2026-04-30 10:53 31.62713 121.54145 22301 ft 313 kts 308°
2026-04-30 10:53 31.64263 121.52306 22895 ft 321 kts 308°
2026-04-30 10:53 31.65871 121.50401 23500 ft 329 kts 308°
2026-04-30 10:54 31.67510 121.48457 24113 ft 336 kts 308°
2026-04-30 10:54 31.69185 121.46470 24716 ft 343 kts 307°
2026-04-30 10:54 31.70881 121.44458 25329 ft 349 kts 308°
2026-04-30 10:54 31.72610 121.42404 25932 ft 355 kts 307°
2026-04-30 10:55 31.74364 121.40321 26543 ft 361 kts 308°
2026-04-30 10:55 31.76128 121.38223 27137 ft 366 kts 308°
2026-04-30 10:55 31.77958 121.36047 27745 ft 371 kts 308°
2026-04-30 10:55 31.79794 121.33862 28350 ft 376 kts 307°
2026-04-30 10:56 31.81662 121.31637 28899 ft 382 kts 307°
2026-04-30 10:56 31.83544 121.29392 29423 ft 389 kts 307°
2026-04-30 10:56 31.85453 121.27116 29928 ft 395 kts 307°
2026-04-30 10:56 31.87361 121.24840 30420 ft 400 kts 307°
2026-04-30 10:57 31.89223 121.22617 30894 ft 405 kts 307°
2026-04-30 10:57 31.91244 121.20203 31399 ft 410 kts 308°
2026-04-30 10:57 31.93228 121.17832 31883 ft 413 kts 308°
2026-04-30 10:57 31.95255 121.15408 32375 ft 416 kts 308°
2026-04-30 10:58 31.97309 121.12951 32863 ft 419 kts 308°
2026-04-30 10:58 31.99358 121.10498 33345 ft 421 kts 307°
2026-04-30 10:58 32.01415 121.08032 33861 ft 424 kts 308°
2026-04-30 10:58 32.03465 121.05574 34351 ft 425 kts 308°
2026-04-30 10:59 32.05552 121.03069 34852 ft 427 kts 308°
2026-04-30 10:59 32.07556 121.00494 35346 ft 423 kts 303°
2026-04-30 10:59 32.09248 120.97678 35841 ft 418 kts 296°
2026-04-30 10:59 32.10600 120.94662 36345 ft 413 kts 290°
2026-04-30 11:00 32.11616 120.91499 36849 ft 409 kts 285°
2026-04-30 11:00 32.12496 120.88357 37311 ft 407 kts 285°
2026-04-30 11:00 32.13383 120.85170 37811 ft 404 kts 285°
2026-04-30 11:00 32.14254 120.82037 38146 ft 405 kts 285°
2026-04-30 11:01 32.16024 120.75633 38163 ft 417 kts 284°
2026-04-30 11:01 32.17053 120.68811 38163 ft 427 kts 275°
2026-04-30 11:02 32.17646 120.61752 38152 ft 438 kts 275°
2026-04-30 11:02 32.18242 120.54586 38159 ft 441 kts 275°
2026-04-30 11:03 32.18839 120.47387 38162 ft 440 kts 275°
2026-04-30 11:04 32.19728 120.36556 38155 ft 440 kts 275°
2026-04-30 11:04 32.19499 120.29351 38179 ft 442 kts 262°
2026-04-30 11:05 32.17609 120.22427 38175 ft 449 kts 248°
2026-04-30 11:05 32.14650 120.15797 38175 ft 454 kts 246°
2026-04-30 11:06 32.11671 120.09250 38165 ft 453 kts 246°
2026-04-30 11:06 32.08687 120.02701 38177 ft 452 kts 246°
2026-04-30 11:07 32.05689 119.96133 38161 ft 453 kts 247°
2026-04-30 11:07 32.02692 119.89578 38178 ft 454 kts 247°
2026-04-30 11:08 31.99684 119.83013 38173 ft 452 kts 247°
2026-04-30 11:08 31.96682 119.76472 38171 ft 453 kts 247°
2026-04-30 11:09 31.93687 119.69951 38182 ft 450 kts 248°
2026-04-30 11:09 31.91093 119.63893 38165 ft 450 kts 249°
2026-04-30 11:10 31.88038 119.56728 38181 ft 450 kts 249°
2026-04-30 11:10 31.85218 119.50145 38164 ft 450 kts 249°
2026-04-30 11:11 31.82369 119.43514 38165 ft 449 kts 249°
2026-04-30 11:11 31.79531 119.36943 38165 ft 450 kts 249°
2026-04-30 11:12 31.76665 119.30423 38187 ft 451 kts 249°
2026-04-30 11:12 31.73765 119.23837 38173 ft 451 kts 249°
2026-04-30 11:13 31.70868 119.17269 38175 ft 452 kts 249°
2026-04-30 11:13 31.67971 119.10711 38170 ft 453 kts 249°
2026-04-30 11:14 31.65763 119.03925 38169 ft 442 kts 262°
2026-04-30 11:14 31.65207 118.96833 38174 ft 434 kts 276°
2026-04-30 11:15 31.65857 118.89792 38175 ft 433 kts 279°
2026-04-30 11:15 31.66501 118.82815 38166 ft 430 kts 278°
2026-04-30 11:16 31.67080 118.75827 38169 ft 430 kts 278°
2026-04-30 11:16 31.67630 118.68778 38162 ft 431 kts 278°
2026-04-30 11:17 31.68154 118.61809 38166 ft 431 kts 278°
2026-04-30 11:17 31.68670 118.54798 38161 ft 430 kts 277°
2026-04-30 11:18 31.69176 118.47819 38156 ft 429 kts 278°
2026-04-30 11:18 31.69924 118.37371 38161 ft 429 kts 278°
2026-04-30 11:19 31.70417 118.30397 38175 ft 428 kts 277°
2026-04-30 11:19 31.70906 118.23425 38177 ft 428 kts 277°
2026-04-30 11:20 31.71385 118.16531 38172 ft 427 kts 278°
2026-04-30 11:20 31.71865 118.09579 38169 ft 426 kts 278°
2026-04-30 11:21 31.72376 118.02654 38170 ft 427 kts 278°
2026-04-30 11:21 31.72886 117.95716 38178 ft 425 kts 278°
2026-04-30 11:22 31.73388 117.88828 38204 ft 427 kts 278°
2026-04-30 11:22 31.73885 117.81933 38161 ft 423 kts 278°
2026-04-30 11:23 31.74378 117.75060 38159 ft 424 kts 278°
2026-04-30 11:24 31.75109 117.64745 38158 ft 422 kts 278°
2026-04-30 11:24 31.75593 117.57865 38168 ft 421 kts 279°
2026-04-30 11:25 31.76304 117.47641 38154 ft 421 kts 279°
2026-04-30 11:26 31.77573 117.34038 38149 ft 416 kts 287°
2026-04-30 11:26 31.79706 117.27782 38159 ft 412 kts 300°
2026-04-30 11:27 31.83055 117.22379 38162 ft 410 kts 309°
2026-04-30 11:27 31.86812 117.17235 38170 ft 412 kts 308°
2026-04-30 11:28 31.92380 117.09556 38159 ft 412 kts 308°
2026-04-30 11:29 31.96092 117.04412 38173 ft 412 kts 308°
2026-04-30 11:29 32.01643 116.96716 38157 ft 412 kts 308°
2026-04-30 11:30 32.07211 116.89001 38149 ft 411 kts 309°
2026-04-30 11:31 32.10900 116.83877 38147 ft 408 kts 309°
2026-04-30 11:31 32.14573 116.78768 38144 ft 410 kts 309°
2026-04-30 11:32 32.18237 116.73664 38155 ft 407 kts 309°
2026-04-30 11:32 32.21881 116.68476 38139 ft 409 kts 308°
2026-04-30 11:33 32.27294 116.60668 38143 ft 407 kts 308°
2026-04-30 11:33 32.30904 116.55456 38140 ft 408 kts 309°
2026-04-30 11:34 32.34500 116.50262 38139 ft 406 kts 309°
2026-04-30 11:34 32.38065 116.45106 38135 ft 408 kts 309°
2026-04-30 11:35 32.41665 116.39892 38129 ft 407 kts 309°
2026-04-30 11:35 32.45229 116.34724 38128 ft 405 kts 308°
2026-04-30 11:36 32.48822 116.29505 38141 ft 406 kts 309°
2026-04-30 11:36 32.52396 116.24309 38146 ft 407 kts 308°
2026-04-30 11:37 32.55967 116.19108 38131 ft 406 kts 308°
2026-04-30 11:37 32.59582 116.13941 38137 ft 406 kts 309°
2026-04-30 11:38 32.63182 116.08849 38136 ft 404 kts 309°
2026-04-30 11:38 32.66803 116.03713 38147 ft 405 kts 309°
2026-04-30 11:39 32.70425 115.98565 38131 ft 405 kts 310°
2026-04-30 11:39 32.74013 115.93459 38137 ft 406 kts 309°
2026-04-30 11:40 32.77634 115.88296 38125 ft 405 kts 309°
2026-04-30 11:40 32.81249 115.83135 38120 ft 405 kts 310°
2026-04-30 11:41 32.84847 115.77992 38133 ft 406 kts 310°
2026-04-30 11:41 32.88444 115.72841 38112 ft 406 kts 310°
2026-04-30 11:42 32.92144 115.67780 38107 ft 404 kts 311°
2026-04-30 11:42 32.95851 115.62750 38112 ft 404 kts 311°
2026-04-30 11:43 32.99562 115.57699 38102 ft 403 kts 312°
2026-04-30 11:43 33.03245 115.52674 38101 ft 403 kts 312°
2026-04-30 11:44 33.06941 115.47622 38103 ft 404 kts 312°
2026-04-30 11:44 33.10631 115.42570 38091 ft 402 kts 312°
2026-04-30 11:45 33.14325 115.37505 38110 ft 405 kts 312°
2026-04-30 11:45 33.18015 115.32437 38136 ft 403 kts 311°
2026-04-30 11:46 33.21740 115.27315 38128 ft 403 kts 311°
2026-04-30 11:46 33.25417 115.22251 38125 ft 403 kts 312°
2026-04-30 11:47 33.29114 115.17152 38134 ft 403 kts 311°
2026-04-30 11:47 33.32793 115.12072 38127 ft 402 kts 311°
2026-04-30 11:48 33.36481 115.06972 38124 ft 403 kts 311°
2026-04-30 11:48 33.40178 115.01852 38105 ft 402 kts 311°
2026-04-30 11:49 33.43854 114.96754 38097 ft 402 kts 311°
2026-04-30 11:49 33.47513 114.91672 38099 ft 404 kts 312°
2026-04-30 11:50 33.51182 114.86568 38101 ft 403 kts 311°
2026-04-30 11:50 33.54857 114.81451 38082 ft 404 kts 312°
2026-04-30 11:51 33.58552 114.76297 38079 ft 405 kts 312°
2026-04-30 11:51 33.62248 114.71240 38076 ft 404 kts 313°
2026-04-30 11:52 33.66029 114.66186 38078 ft 404 kts 315°
2026-04-30 11:52 33.70322 114.61824 38071 ft 404 kts 321°
2026-04-30 11:53 33.74712 114.57633 38077 ft 404 kts 321°
2026-04-30 11:53 33.79146 114.53391 38070 ft 404 kts 321°
2026-04-30 11:54 33.83555 114.49174 38066 ft 405 kts 321°
2026-04-30 11:54 33.87971 114.45027 38067 ft 404 kts 321°
2026-04-30 11:55 33.92427 114.40836 38061 ft 404 kts 322°
2026-04-30 11:55 33.96848 114.36669 38056 ft 406 kts 321°
2026-04-30 11:56 34.00813 114.32926 38074 ft 403 kts 321°
2026-04-30 11:56 34.05107 114.28866 38063 ft 405 kts 321°
2026-04-30 11:57 34.09616 114.24597 38067 ft 403 kts 321°
2026-04-30 11:57 34.14059 114.20385 38082 ft 403 kts 321°
2026-04-30 11:58 34.18456 114.16211 38080 ft 401 kts 321°
2026-04-30 11:58 34.22754 114.12124 38088 ft 403 kts 321°
2026-04-30 11:59 34.27163 114.07927 38086 ft 401 kts 321°
2026-04-30 11:59 34.31570 114.03725 38086 ft 403 kts 321°
2026-04-30 12:00 34.35954 113.99541 38078 ft 400 kts 321°
2026-04-30 12:00 34.40329 113.95358 38084 ft 401 kts 321°
2026-04-30 12:01 34.44699 113.91174 38081 ft 401 kts 321°
2026-04-30 12:01 34.49084 113.87004 38076 ft 400 kts 324°
2026-04-30 12:02 34.54022 113.83723 38075 ft 405 kts 335°
2026-04-30 12:02 34.59418 113.81778 38069 ft 410 kts 340°
2026-04-30 12:03 34.67685 113.79085 38057 ft 409 kts 340°
2026-04-30 12:04 34.73191 113.77274 38054 ft 410 kts 340°
2026-04-30 12:04 34.78712 113.75450 38049 ft 409 kts 340°
2026-04-30 12:05 34.84223 113.73624 38036 ft 410 kts 340°
2026-04-30 12:05 34.89653 113.71590 38037 ft 406 kts 336°
2026-04-30 12:06 34.94946 113.69199 38037 ft 408 kts 336°
2026-04-30 12:06 35.00270 113.66820 38031 ft 407 kts 335°
2026-04-30 12:07 35.05627 113.64441 38028 ft 405 kts 335°
2026-04-30 12:07 35.10951 113.62080 38041 ft 408 kts 336°
2026-04-30 12:08 35.16300 113.59710 38053 ft 406 kts 336°
2026-04-30 12:08 35.21651 113.57337 38055 ft 407 kts 336°
2026-04-30 12:09 35.27008 113.54960 38054 ft 407 kts 336°
2026-04-30 12:09 35.32330 113.52595 38079 ft 406 kts 336°
2026-04-30 12:10 35.37679 113.50216 38111 ft 406 kts 336°
2026-04-30 12:10 35.42993 113.47848 38132 ft 406 kts 336°
2026-04-30 12:11 35.48292 113.45496 38148 ft 406 kts 336°
2026-04-30 12:11 35.53629 113.43133 38155 ft 405 kts 336°
2026-04-30 12:12 35.58923 113.40786 38152 ft 405 kts 336°
2026-04-30 12:12 35.64270 113.38409 38155 ft 406 kts 336°
2026-04-30 12:13 35.69580 113.36041 38158 ft 406 kts 336°
2026-04-30 12:13 35.74913 113.33659 38173 ft 406 kts 335°
2026-04-30 12:14 35.80197 113.31297 38175 ft 405 kts 335°
2026-04-30 12:14 35.85523 113.28913 38167 ft 405 kts 336°
2026-04-30 12:15 35.90807 113.26555 38167 ft 405 kts 335°
2026-04-30 12:15 35.93463 113.25369 37896 ft 408 kts 336°
2026-04-30 12:15 35.96135 113.24174 37450 ft 409 kts 335°
2026-04-30 12:15 35.98801 113.22983 36783 ft 403 kts 335°
2026-04-30 12:16 36.01435 113.21806 36109 ft 398 kts 335°
2026-04-30 12:16 36.04019 113.20648 35438 ft 394 kts 335°
2026-04-30 12:16 36.06589 113.19496 34776 ft 391 kts 335°
2026-04-30 12:16 36.09150 113.18346 34088 ft 395 kts 335°
2026-04-30 12:17 36.14429 113.15971 32745 ft 407 kts 336°
2026-04-30 12:17 36.17089 113.14775 32125 ft 409 kts 336°
2026-04-30 12:17 36.19786 113.13561 31487 ft 417 kts 336°
2026-04-30 12:18 36.22507 113.12334 30852 ft 423 kts 337°
2026-04-30 12:18 36.25309 113.11228 30226 ft 423 kts 342°
2026-04-30 12:18 36.28166 113.10299 29587 ft 421 kts 342°
2026-04-30 12:18 36.31004 113.09386 28925 ft 419 kts 342°
2026-04-30 12:19 36.33815 113.08479 28275 ft 417 kts 343°
2026-04-30 12:19 36.36598 113.07579 27637 ft 415 kts 343°
2026-04-30 12:19 36.39398 113.06673 26989 ft 414 kts 343°
2026-04-30 12:19 36.42175 113.05772 26331 ft 413 kts 343°
2026-04-30 12:20 36.44967 113.04864 25670 ft 412 kts 343°
2026-04-30 12:20 36.47747 113.03961 25012 ft 411 kts 343°
2026-04-30 12:20 36.50500 113.03065 24352 ft 410 kts 343°
2026-04-30 12:20 36.53263 113.02165 23684 ft 408 kts 343°
2026-04-30 12:21 36.56010 113.01270 23022 ft 407 kts 343°
2026-04-30 12:21 36.58729 113.00383 22374 ft 406 kts 344°
2026-04-30 12:21 36.61462 112.99491 21720 ft 404 kts 344°
2026-04-30 12:21 36.64187 112.98601 21071 ft 402 kts 344°
2026-04-30 12:22 36.66878 112.97720 20426 ft 400 kts 344°
2026-04-30 12:22 36.69571 112.96839 19780 ft 398 kts 344°
2026-04-30 12:22 36.72253 112.95961 19136 ft 396 kts 345°
2026-04-30 12:22 36.74912 112.95090 18493 ft 394 kts 345°
2026-04-30 12:23 36.77535 112.94230 17855 ft 392 kts 345°
2026-04-30 12:23 36.80179 112.93362 17211 ft 390 kts 345°
2026-04-30 12:23 36.82801 112.92498 16573 ft 388 kts 345°
2026-04-30 12:23 36.85405 112.91640 15934 ft 386 kts 345°
2026-04-30 12:24 36.87984 112.90791 15302 ft 385 kts 345°
2026-04-30 12:24 36.90566 112.89938 14668 ft 383 kts 345°
2026-04-30 12:24 36.93173 112.89078 14022 ft 381 kts 345°
2026-04-30 12:24 36.95724 112.88235 13402 ft 379 kts 345°
2026-04-30 12:25 36.98267 112.87395 13096 ft 367 kts 345°
2026-04-30 12:25 37.00704 112.86588 13074 ft 365 kts 345°
2026-04-30 12:25 37.03175 112.85770 13078 ft 365 kts 345°
2026-04-30 12:25 37.05224 112.85092 13081 ft 364 kts 345°
2026-04-30 12:26 37.07903 112.84184 13090 ft 365 kts 344°
2026-04-30 12:26 37.10357 112.83337 13097 ft 364 kts 344°
2026-04-30 12:26 37.12780 112.82500 13099 ft 364 kts 344°
2026-04-30 12:26 37.15205 112.81662 13099 ft 365 kts 344°
2026-04-30 12:27 37.17601 112.80554 13108 ft 366 kts 334°
2026-04-30 12:27 37.19815 112.78954 13110 ft 363 kts 328°
2026-04-30 12:27 37.21968 112.77232 13112 ft 364 kts 328°
2026-04-30 12:27 37.24103 112.75515 13058 ft 366 kts 328°
2026-04-30 12:28 37.26258 112.73783 12687 ft 361 kts 328°
2026-04-30 12:28 37.28358 112.72094 12249 ft 355 kts 328°
2026-04-30 12:28 37.30408 112.70445 11811 ft 350 kts 327°
2026-04-30 12:28 37.32472 112.68784 11367 ft 346 kts 327°
2026-04-30 12:29 37.34481 112.67165 10927 ft 343 kts 327°
2026-04-30 12:29 37.36496 112.65542 10490 ft 345 kts 327°
2026-04-30 12:29 37.38497 112.63928 10050 ft 343 kts 327°
2026-04-30 12:29 37.40491 112.62318 9612 ft 340 kts 327°
2026-04-30 12:30 37.42479 112.60706 9212 ft 338 kts 327°
2026-04-30 12:30 37.44481 112.59081 8812 ft 339 kts 327°
2026-04-30 12:30 37.46453 112.57479 8420 ft 334 kts 327°
2026-04-30 12:30 37.48395 112.55903 8031 ft 329 kts 327°
2026-04-30 12:31 37.50311 112.54346 7653 ft 325 kts 327°
2026-04-30 12:31 37.52195 112.52814 7296 ft 320 kts 327°
2026-04-30 12:31 37.54050 112.51305 7053 ft 312 kts 326°
2026-04-30 12:31 37.55840 112.49848 7014 ft 297 kts 327°
2026-04-30 12:32 37.57535 112.48468 7019 ft 281 kts 327°
2026-04-30 12:32 37.59153 112.47149 7023 ft 267 kts 326°
2026-04-30 12:32 37.60689 112.45897 7016 ft 253 kts 326°
2026-04-30 12:32 37.62120 112.44728 6984 ft 241 kts 328°
2026-04-30 12:33 37.63525 112.43579 6929 ft 236 kts 329°
2026-04-30 12:33 37.64909 112.42451 6903 ft 236 kts 329°
2026-04-30 12:33 37.66266 112.41342 6851 ft 226 kts 329°
2026-04-30 12:33 37.67561 112.40285 6804 ft 214 kts 328°
2026-04-30 12:34 37.68789 112.39281 6753 ft 203 kts 328°
2026-04-30 12:34 37.69972 112.38315 6708 ft 203 kts 328°
2026-04-30 12:34 37.71184 112.37322 6676 ft 203 kts 328°
2026-04-30 12:34 37.72381 112.36343 6633 ft 203 kts 327°
2026-04-30 12:35 37.73566 112.35373 6601 ft 202 kts 327°
2026-04-30 12:35 37.74764 112.34391 6554 ft 203 kts 326°
2026-04-30 12:35 37.75955 112.33415 6539 ft 203 kts 326°
2026-04-30 12:35 37.77146 112.32439 6550 ft 204 kts 326°
2026-04-30 12:36 37.78326 112.31471 6721 ft 202 kts 326°
2026-04-30 12:36 37.79519 112.30492 7047 ft 204 kts 326°
2026-04-30 12:36 37.80725 112.29501 7157 ft 206 kts 326°
2026-04-30 12:36 37.81889 112.28546 7155 ft 191 kts 326°
2026-04-30 12:37 37.83083 112.27904 7131 ft 183 kts 350°
2026-04-30 12:37 37.84348 112.27949 7017 ft 180 kts 15°
2026-04-30 12:37 37.85452 112.28637 6894 ft 180 kts 39°
2026-04-30 12:37 37.86319 112.29783 6767 ft 180 kts 50°
2026-04-30 12:38 37.87130 112.30997 6635 ft 180 kts 52°
2026-04-30 12:38 37.87921 112.32223 6567 ft 179 kts 52°
2026-04-30 12:38 37.88721 112.33465 6557 ft 181 kts 52°
2026-04-30 12:38 37.89516 112.34712 6547 ft 182 kts 55°
2026-04-30 12:39 37.89932 112.36196 6554 ft 182 kts 92°
2026-04-30 12:39 37.89491 112.37636 6526 ft 179 kts 132°
2026-04-30 12:39 37.88622 112.38761 6547 ft 175 kts 133°
2026-04-30 12:39 37.87846 112.39924 6538 ft 173 kts 129°
2026-04-30 12:40 37.87112 112.41131 6516 ft 171 kts 127°
2026-04-30 12:40 37.86396 112.42336 6300 ft 173 kts 125°
2026-04-30 12:40 37.85690 112.43540 6080 ft 167 kts 125°
2026-04-30 12:40 37.84993 112.44720 5876 ft 167 kts 127°
2026-04-30 12:41 37.84283 112.45905 5662 ft 168 kts 126°
2026-04-30 12:41 37.83586 112.47079 5456 ft 168 kts 126°
2026-04-30 12:41 37.82879 112.48270 5238 ft 166 kts 128°
2026-04-30 12:41 37.82187 112.49423 5023 ft 163 kts 128°
2026-04-30 12:42 37.81513 112.50583 4821 ft 165 kts 123°
2026-04-30 12:42 37.80989 112.51911 4586 ft 168 kts 115°
2026-04-30 12:42 37.80448 112.53236 4347 ft 167 kts 123°
2026-04-30 12:42 37.79788 112.54429 4037 ft 165 kts 128°
2026-04-30 12:43 37.79080 112.55555 3716 ft 159 kts 130°
2026-04-30 12:43 37.78409 112.56620 3499 ft 153 kts 129°
2026-04-30 12:43 37.77761 112.57705 3291 ft 155 kts 127°
2026-04-30 12:43 37.77132 112.58796 3107 ft 156 kts 127°
2026-04-30 12:44 37.76481 112.59879 2923 ft 155 kts 129°
2026-04-30 12:44 37.75818 112.60967 2734 ft 155 kts 127°
2026-04-30 12:44 37.75171 112.62046 2596 ft 145 kts 127°
2026-04-30 12:44 37.74637 112.62931 2596 ft 103 kts 127°
2026-04-30 12:45 37.74413 112.63303 2595 ft 44 kts 126°
2026-04-30 12:45 37.74294 112.63528 2596 ft 24 kts 108°
2026-04-30 12:45 37.74235 112.63722 2596 ft 22 kts 101°
2026-04-30 12:45 37.74223 112.63827 2596 ft 10 kts 90°
2026-04-30 12:46 37.74258 112.63882 2596 ft 8 kts 356°
2026-04-30 12:46 37.74308 112.63835 2596 ft 9 kts 311°
2026-04-30 12:46 37.74372 112.63731 2596 ft 21 kts 306°
2026-04-30 12:46 37.74491 112.63533 2596 ft 33 kts 307°
2026-04-30 12:47 37.74626 112.63306 2595 ft 31 kts 306°
2026-04-30 12:47 37.74742 112.63107 2595 ft 24 kts 306°
2026-04-30 12:47 37.74815 112.62991 2595 ft 4 kts 319°
2026-04-30 12:47 37.74846 112.62978 2595 ft 4 kts
2026-04-30 12:48 37.74879 112.62991 2595 ft 5 kts 19°
2026-04-30 12:48 37.74905 112.63011 2595 ft 0 kts 38°
2026-04-30 12:48 37.74912 112.63017 2595 ft 2 kts 38°
2026-04-30 12:48 37.74933 112.63042 2595 ft 7 kts 46°
2026-04-30 12:49 37.74947 112.63111 2595 ft 8 kts 106°
2026-04-30 12:49 37.74915 112.63175 2595 ft 8 kts 129°
2026-04-30 12:49 37.74903 112.63194 2595 ft 3 kts 127°